Temperature
33 32 32 32 33 33 33 33 32 33 34 34 33 32 32 32 31 30 28 27 26 25 24 24 23 22 21 20 20 20 20 20 20 19 19 19 19 19 19 19 19 19 19 19
33 32 33 34 34 34 33 33 32 33 34 34 32 32 32 32 31 31 29 28 27 26 24 24 23 22 21 21 20 20 20 20 20 19 19 19 19 20 19 20 20 19 19 19
32 33 34 34 34 33 33 33 33 32 33 34 32 31 31 32 32 31 30 29 28 26 25 24 23 23 22 21 20 20 20 20 20 19 19 19 19 19 20 20 19 19 19 19
33 34 34 34 34 33 33 34 34 33 32 32 32 30 30 31 31 32 31 30 28 27 26 24 24 23 22 21 21 20 20 20 20 19 19 19 19 19 20 20 20 19 19 19
32 34 33 33 34 34 33 34 34 33 33 32 32 31 30 31 30 31 31 30 29 28 27 25 24 23 23 22 21 21 20 20 20 20 20 19 19 19 19 19 19 19 19 19
33 34 34 34 34 35 34 34 34 33 33 31 32 32 30 31 31 31 32 31 30 29 27 26 25 24 23 23 22 21 21 20 20 20 20 19 19 19 19 19 19 19 19 19
32 33 34 34 34 34 34 32 31 30 30 30 32 32 31 32 32 33 32 31 30 29 28 27 25 24 24 23 22 22 21 20 20 20 20 20 19 19 19 19 19 19 19 19
31 32 34 34 33 33 33 33 30 29 29 30 31 31 32 33 33 32 32 31 30 29 28 27 26 25 24 23 23 22 21 20 20 20 20 20 19 19 19 19 19 19 19 19
32 32 34 34 34 34 33 33 33 32 31 30 30 31 32 33 33 32 31 30 29 29 28 27 26 25 24 23 23 22 21 21 20 20 20 20 19 19 19 19 19 19 19 19
32 31 33 34 34 34 33 33 32 31 29 29 30 30 30 30 31 32 31 30 29 28 28 27 26 25 24 24 23 22 22 21 20 20 20 19 19 19 19 19 19 19 19 19
33 31 32 33 32 32 32 32 32 31 30 29 28 29 31 31 31 31 30 29 29 28 28 26 26 25 24 24 23 22 22 21 20 20 19 19 19 19 19 19 19 19 19 19
32 31 30 32 33 33 33 32 32 30 29 30 29 29 32 31 31 30 29 28 28 27 27 26 25 25 24 24 23 22 21 21 20 20 20 19 19 19 19 19 19 19 19 19
31 30 29 29 31 32 32 32 32 32 31 30 29 29 31 30 30 28 28 27 27 26 26 25 25 24 24 23 23 22 22 21 21 20 20 19 19 19 19 19 19 19 19 19
30 29 29 28 29 30 31 31 32 31 30 30 29 29 30 29 28 28 27 27 26 26 25 25 24 23 23 23 22 22 22 21 21 20 20 19 19 19 19 19 19 19 19 18
31 29 29 29 30 31 30 31 31 30 30 30 29 29 29 29 28 27 27 26 26 25 25 24 23 22 22 22 22 22 21 21 21 20 20 19 19 19 19 18 18 18 18 18
30 28 28 28 30 30 30 31 31 31 31 30 30 29 29 29 27 27 26 26 25 25 24 23 23 22 22 21 21 21 21 21 20 20 20 19 19 19 18 18 18 18 18 18
29 28 27 27 29 29 29 30 30 30 31 30 29 29 29 28 27 27 26 25 25 24 23 23 22 22 21 21 20 20 20 20 20 19 19 19 18 18 18 18 18 18 18 18
28 27 27 27 27 26 29 31 31 30 30 30 29 29 28 27 26 25 25 25 24 23 22 22 22 21 21 20 20 20 19 19 19 19 19 18 18 18 18 17 18 18 18 17
29 27 26 26 26 27 29 29 29 29 28 29 28 28 28 27 26 25 24 23 23 22 22 21 21 21 20 20 19 19 19 19 19 18 18 18 18 18 17 17 17 17 17 17
28 27 26 26 25 25 27 28 28 28 27 27 27 27 26 26 25 24 23 22 22 21 21 21 20 20 19 19 19 19 18 18 18 18 18 18 17 17 17 17 17 17 17 17
26 26 25 25 25 26 27 28 28 26 24 26 26 25 25 24 24 23 22 21 21 20 20 20 19 19 19 18 18 18 18 17 17 17 17 17 17 17 17 17 17 17 16 16
26 25 25 25 24 24 25 26 25 24 24 24 24 24 23 23 22 22 21 21 20 20 19 19 19 18 18 18 17 17 17 17 17 17 17 17 16 16 16 16 16 16 16 16
26 25 25 24 24 23 24 24 24 23 23 23 23 23 22 22 22 21 20 20 19 19 19 18 18 18 17 17 17 17 16 16 16 16 16 16 16 16 16 16 16 16 16 15
25 25 24 23 23 24 23 23 22 22 22 22 22 22 21 21 21 20 20 19 19 18 18 18 17 17 17 17 16 16 16 16 16 16 16 16 16 16 16 15 15 15 15 15
24 24 23 23 23 22 22 22 21 21 21 21 21 21 20 20 20 19 19 18 18 18 17 17 17 16 16 16 16 16 16 15 15 15 15 15 15 15 15 15 15 15 15 15
23 23 22 22 22 21 21 20 20 20 20 20 20 19 19 19 19 19 18 18 17 17 17 16 16 16 16 15 15 15 15 15 15 14 14 15 15 15 15 15 15 15 15 15
Wind_Speed
10 10 8 6 7 9 8 5 4 3 4 4 4 5 9 10 11 12 13 13 14 13 13 14 13 13 13 12 11 10 9 8 6 5 5 4 4 4 4 4 6 5 5 5
11 11 10 10 8 8 7 6 5 4 3 4 2 2 5 8 10 12 13 14 14 14 14 14 14 13 13 12 11 10 9 9 8 6 5 4 4 4 4 3 5 6 5 4
11 9 9 10 8 8 9 6 5 5 5 4 3 5 6 6 7 10 12 13 15 15 16 15 15 14 14 13 12 11 10 9 9 7 5 4 4 3 3 4 4 4 4 4
11 11 10 10 9 9 8 6 6 7 7 6 6 5 6 6 6 9 11 12 13 15 16 16 15 14 14 14 13 11 10 9 9 8 6 7 6 5 5 4 4 5 5 4
12 11 11 11 10 10 8 8 8 9 10 9 9 6 5 7 7 8 10 12 13 15 16 16 16 15 14 14 13 12 10 9 9 8 7 6 6 5 4 4 4 5 5 5
13 11 10 10 11 8 8 11 12 11 10 10 8 7 4 7 7 6 8 9 10 12 15 15 15 14 12 12 12 12 10 9 9 9 8 8 7 6 5 4 5 5 4 5
13 13 12 10 11 9 9 10 8 8 7 7 7 7 2 5 6 5 7 9 9 9 11 13 14 14 13 13 12 12 12 10 9 9 8 8 8 7 7 6 5 5 4 5
12 11 12 10 10 9 10 11 8 8 7 6 4 4 2 5 6 6 5 7 8 8 9 10 11 12 12 13 12 12 12 11 10 10 8 7 7 7 6 7 6 5 4 4
9 8 6 7 7 9 10 11 11 11 11 9 4 2 3 5 7 8 7 7 8 7 8 10 11 10 10 9 9 11 11 11 11 10 9 7 7 7 7 6 7 6 5 5
10 9 9 8 8 10 11 11 8 7 7 8 5 3 2 5 5 7 7 7 7 7 6 6 8 8 9 9 9 9 10 10 9 9 9 9 8 7 7 7 6 5 5 4
11 10 10 9 10 9 9 11 8 7 8 8 6 2 5 6 5 6 6 6 6 5 6 5 5 7 7 8 9 8 9 9 9 9 8 7 7 7 7 6 6 6 5 4
8 9 10 10 9 10 10 11 11 8 7 7 7 4 2 5 6 6 6 7 6 5 5 4 4 5 5 6 7 8 8 9 9 8 7 7 6 7 7 7 7 6 6 6
3 6 8 9 9 10 9 9 10 10 8 8 8 3 3 6 7 7 6 6 6 4 4 4 4 3 2 2 3 6 8 9 9 8 7 6 6 6 7 7 6 7 7 7
3 7 9 11 9 8 9 9 10 11 9 8 7 3 2 4 5 5 5 4 5 4 3 3 3 2 2 2 2 0 3 5 6 7 7 6 6 6 6 6 6 7 7 7
6 10 11 14 14 12 12 11 12 12 11 11 8 4 1 3 3 5 4 4 5 4 3 3 3 2 2 2 1 1 0 2 2 4 6 6 5 5 5 5 6 6 7 8
7 8 10 14 15 13 14 14 14 14 12 12 9 5 1 3 4 4 3 3 4 3 3 3 3 3 2 2 1 1 1 2 2 2 3 4 4 4 4 4 4 5 5 6
8 8 11 14 14 14 15 13 12 11 9 8 6 3 0 3 3 3 3 2 3 2 2 2 3 3 2 1 1 1 0 1 3 2 2 2 3 3 3 4 3 3 4 4
9 8 9 13 14 16 12 8 8 7 5 3 2 2 2 3 4 3 2 2 2 2 2 3 2 2 2 2 1 1 0 1 2 2 2 2 3 3 3 3 3 3 3 3
9 7 10 12 15 15 11 7 7 6 5 3 2 2 2 3 3 4 5 5 5 3 3 3 3 3 2 2 1 1 1 1 2 2 2 2 2 2 2 3 4 4 3 3
10 8 10 12 14 14 8 6 6 5 5 4 3 2 2 1 1 4 7 6 6 5 5 4 4 4 3 3 3 2 2 2 2 2 2 2 1 2 3 4 3 3 3 4
9 10 12 14 15 10 6 4 4 6 3 5 4 3 3 3 4 4 4 4 4 4 4 4 4 4 3 3 3 3 3 3 3 2 2 2 2 3 5 4 3 3 4 4
10 10 10 11 13 8 6 4 3 4 5 5 4 4 4 4 3 2 2 3 3 3 3 3 3 3 3 3 3 4 4 3 3 3 3 3 3 5 5 3 3 4 4 5
8 6 6 5 3 3 5 5 5 5 5 4 4 4 3 2 2 2 2 2 2 2 3 3 3 3 3 3 3 4 4 3 4 4 4 4 5 5 4 4 5 5 5 5
5 3 4 4 3 1 3 4 5 6 6 6 5 4 3 3 3 3 3 2 2 2 3 3 3 4 4 4 5 5 5 3 4 5 4 4 5 6 5 5 5 5 5 5
8 6 5 5 2 2 2 4 4 5 5 6 6 5 4 4 5 4 3 2 3 3 3 3 3 3 4 4 5 6 5 4 5 5 5 6 6 6 5 5 5 5 4 4
8 6 6 4 2 3 2 2 4 4 4 5 6 6 5 6 6 5 4 3 3 3 3 3 4 5 5 5 5 6 6 5 6 6 6 7 7 5 5 5 4 4 5 5
Wind_Direction
232 244 249 241 227 244 257 269 270 236 199 200 191 167 165 171 173 164 166 171 174 177 174 171 175 168 164 163 165 165 172 166 169 173 180 186 193 202 211 190 169 179 203 207
233 239 250 258 246 254 260 265 264 275 228 229 182 187 181 183 189 175 172 176 178 176 173 173 176 175 172 170 170 172 179 175 179 183 188 194 194 204 205 196 161 187 195 208
237 249 253 256 253 259 265 261 263 266 272 255 223 209 211 213 204 175 175 177 176 176 175 180 181 181 179 178 179 181 184 181 186 187 185 200 190 213 217 184 173 188 200 211
248 247 253 258 263 268 268 275 276 274 266 256 240 237 211 199 202 185 178 175 176 175 177 181 182 184 186 182 182 182 182 182 183 191 196 199 198 202 215 196 183 184 200 220
247 245 248 257 259 264 271 278 276 267 266 265 249 250 200 181 206 201 182 178 179 175 177 181 183 184 188 185 183 179 176 180 181 192 200 206 214 209 211 201 187 192 194 212
253 252 252 255 261 255 268 274 266 261 264 263 261 262 216 182 188 189 186 176 174 175 174 176 177 178 184 185 182 175 171 178 185 194 201 205 216 219 220 214 195 202 205 210
245 243 240 243 255 244 247 261 263 257 252 258 264 259 183 159 169 165 158 157 167 168 169 169 173 176 184 187 184 176 171 178 186 194 205 208 218 220 219 226 216 218 225 213
243 239 229 223 240 257 250 251 255 268 267 265 250 260 146 132 129 119 127 136 135 143 155 163 169 175 184 187 184 177 172 178 186 194 200 204 208 215 219 220 227 218 228 232
255 253 231 226 234 254 262 259 265 272 278 277 247 212 118 121 123 126 131 125 129 139 149 158 159 169 178 185 183 180 170 176 186 194 193 198 203 213 219 214 216 229 229 225
265 272 254 230 227 236 253 271 280 280 285 287 282 262 182 137 116 114 108 116 124 135 139 143 150 161 172 179 182 177 170 177 184 190 196 199 201 209 217 224 220 219 228 234
255 266 263 238 237 245 247 253 260 278 282 284 283 290 98 131 121 116 116 114 113 116 129 142 153 156 157 164 176 183 176 176 184 193 198 202 196 203 208 218 223 224 228 227
249 261 267 256 249 252 255 262 260 256 260 274 276 271 98 113 102 90 89 94 96 95 110 134 148 138 152 161 168 176 184 185 188 190 194 201 200 203 210 215 219 221 223 224
288 259 263 257 248 235 244 252 262 268 266 265 267 249 131 97 91 89 84 92 95 90 94 104 92 108 137 153 167 178 187 192 191 188 192 198 206 212 218 220 215 219 221 224
274 259 265 269 276 267 257 261 266 270 271 270 266 252 138 103 105 102 93 100 104 98 92 105 113 108 82 72 74 121 195 184 189 182 190 194 205 217 225 229 223 223 224 225
251 253 258 267 272 271 265 266 264 264 272 276 273 261 255 138 114 115 126 120 108 101 92 79 88 91 85 73 57 27 301 155 180 177 190 198 203 213 223 229 238 232 226 231
239 265 273 269 267 268 265 257 260 262 261 260 265 257 222 98 111 114 121 127 108 91 77 63 52 64 70 74 71 53 349 122 150 196 196 189 196 205 222 232 242 246 238 237
247 254 266 270 272 273 264 261 262 264 266 275 273 275 61 94 91 112 123 136 115 81 37 54 49 45 50 60 54 43 284 156 155 172 183 191 205 212 222 232 233 241 248 245
246 258 262 267 271 265 270 272 273 274 273 277 293 0 65 99 90 78 69 58 93 84 55 23 28 35 30 31 55 16 260 188 170 188 198 199 212 230 238 237 249 246 246 252
248 243 253 261 263 259 263 274 278 272 281 331 332 8 46 88 106 88 67 57 63 62 46 27 3 359 13 11 8 305 284 247 212 218 224 228 216 221 232 236 251 251 241 245
234 227 241 254 262 265 282 310 319 280 260 351 27 30 17 45 266 80 63 55 47 41 32 18 4 6 14 2 347 321 293 286 256 242 235 232 218 224 234 238 246 251 254 250
232 232 238 251 258 264 305 317 291 266 310 2 27 37 34 32 36 61 58 52 45 42 28 22 12 7 7 357 342 319 307 296 298 280 265 252 247 248 241 236 237 245 247 255
242 246 244 251 256 268 7 16 7 28 28 21 18 34 51 64 63 64 46 35 24 19 15 6 6 4 5 352 331 315 303 305 304 294 280 270 260 262 261 247 244 246 247 250
251 268 273 270 272 42 36 41 38 33 21 16 17 32 35 14 10 21 23 6 351 349 354 347 347 349 348 346 326 303 302 303 297 288 284 280 272 261 261 255 248 247 246 249
265 277 278 282 267 357 32 36 24 19 15 359 357 3 353 334 328 334 337 337 334 334 335 332 329 323 330 334 328 313 302 286 282 283 283 272 264 261 253 244 247 244 243 244
298 291 271 266 275 320 5 20 12 359 345 332 335 335 332 326 311 309 308 316 313 308 308 307 304 305 306 314 313 309 311 306 293 283 278 274 268 262 255 247 247 248 256 251
289 292 280 281 307 298 304 339 336 324 315 322 323 323 320 310 303 302 304 312 309 310 313 307 299 295 298 304 305 310 312 304 292 282 279 279 276 270 265 252 246 230 231 226
Height
1485 1486 1486 1482 1481 1481 1481 1483 1485 1480 1473 1477 1482 1485 1486 1490 1494 1498 1504 1508 1512 1517 1521 1524 1527 1530 1532 1534 1536 1539 1541 1544 1546 1548 1550 1552 1554 1556 1558 1559 1560 1561 1561 1562
1483 1485 1478 1474 1473 1474 1476 1482 1484 1478 1471 1475 1483 1486 1484 1487 1490 1494 1499 1504 1509 1514 1518 1522 1525 1528 1530 1532 1534 1537 1539 1542 1544 1547 1549 1551 1553 1555 1557 1558 1558 1559 1560 1561
1484 1480 1474 1473 1474 1477 1477 1480 1481 1483 1475 1474 1481 1491 1487 1486 1488 1491 1495 1499 1504 1509 1514 1519 1522 1525 1528 1530 1531 1534 1537 1540 1542 1545 1547 1550 1552 1553 1555 1556 1557 1558 1558 1559
1477 1474 1474 1474 1475 1476 1482 1472 1473 1477 1483 1487 1484 1503 1491 1485 1486 1487 1491 1496 1500 1505 1510 1515 1519 1522 1525 1527 1529 1532 1534 1537 1540 1543 1545 1547 1549 1551 1552 1554 1555 1555 1556 1557
1477 1473 1474 1477 1474 1472 1475 1469 1471 1475 1479 1484 1481 1492 1492 1483 1489 1486 1487 1491 1495 1500 1506 1511 1515 1518 1522 1525 1528 1530 1532 1534 1537 1540 1542 1545 1547 1549 1551 1552 1553 1553 1554 1555
1472 1469 1469 1471 1469 1469 1470 1472 1473 1474 1479 1497 1484 1489 1495 1482 1482 1481 1483 1487 1492 1496 1501 1507 1511 1516 1520 1523 1525 1527 1529 1532 1534 1537 1539 1542 1544 1546 1548 1549 1550 1551 1552 1552
1476 1469 1467 1468 1471 1469 1472 1483 1497 1502 1503 1501 1481 1485 1486 1473 1473 1476 1480 1485 1490 1494 1499 1504 1509 1513 1517 1520 1522 1525 1526 1529 1531 1534 1536 1538 1540 1542 1544 1546 1547 1548 1549 1550
1484 1481 1465 1464 1470 1473 1472 1478 1499 1513 1510 1498 1486 1489 1478 1468 1471 1475 1480 1484 1489 1493 1498 1502 1506 1510 1514 1517 1520 1522 1524 1526 1529 1531 1532 1534 1536 1538 1540 1542 1544 1545 1546 1547
1478 1477 1461 1461 1464 1468 1474 1474 1470 1483 1489 1496 1491 1483 1475 1470 1473 1476 1481 1485 1489 1493 1497 1501 1505 1509 1512 1515 1517 1519 1521 1523 1526 1528 1529 1531 1533 1534 1536 1539 1541 1542 1543 1545
1468 1478 1465 1462 1464 1466 1468 1470 1474 1486 1503 1509 1499 1493 1489 1482 1478 1478 1482 1485 1489 1493 1497 1500 1503 1506 1509 1511 1514 1518 1519 1521 1523 1525 1526 1528 1529 1531 1533 1535 1537 1538 1540 1541
1465 1476 1472 1466 1470 1472 1472 1473 1476 1482 1487 1502 1512 1503 1476 1478 1478 1480 1483 1486 1489 1492 1495 1499 1502 1505 1507 1509 1513 1515 1518 1519 1521 1522 1524 1525 1527 1528 1530 1531 1532 1534 1536 1537
1465 1473 1479 1470 1461 1461 1466 1471 1473 1489 1493 1489 1499 1498 1472 1475 1479 1483 1486 1488 1490 1493 1496 1499 1502 1504 1507 1509 1510 1513 1514 1516 1517 1519 1521 1522 1524 1525 1526 1527 1529 1531 1532 1533
1469 1477 1490 1486 1476 1467 1468 1468 1469 1471 1479 1488 1498 1497 1475 1478 1481 1486 1488 1491 1493 1494 1497 1500 1502 1504 1505 1507 1508 1510 1511 1513 1514 1516 1517 1519 1521 1522 1523 1524 1525 1527 1528 1529
1472 1478 1487 1495 1485 1473 1474 1471 1469 1474 1482 1487 1488 1487 1480 1481 1484 1487 1490 1492 1494 1496 1498 1500 1502 1503 1504 1505 1506 1508 1509 1510 1511 1512 1514 1516 1517 1518 1519 1521 1522 1523 1524 1525
1471 1479 1478 1476 1471 1469 1471 1471 1470 1474 1476 1484 1483 1483 1481 1481 1484 1488 1491 1492 1495 1497 1498 1500 1501 1502 1503 1504 1505 1506 1507 1508 1509 1510 1511 1512 1514 1515 1516 1517 1518 1518 1519 1520
1472 1478 1479 1480 1471 1469 1470 1469 1469 1470 1470 1473 1475 1480 1478 1481 1485 1489 1491 1493 1495 1497 1499 1500 1501 1502 1502 1503 1505 1505 1506 1506 1507 1508 1509 1510 1511 1511 1512 1513 1514 1514 1515 1516
1473 1479 1486 1486 1474 1473 1479 1468 1467 1468 1466 1470 1477 1478 1477 1481 1484 1487 1491 1493 1495 1497 1499 1500 1502 1502 1502 1503 1503 1504 1505 1505 1506 1507 1507 1508 1508 1508 1508 1509 1510 1510 1510 1511
1475 1480 1483 1484 1484 1496 1474 1460 1462 1466 1466 1468 1472 1475 1478 1482 1486 1489 1491 1493 1495 1497 1499 1500 1502 1502 1502 1502 1503 1503 1503 1503 1504 1504 1505 1505 1505 1505 1505 1506 1506 1506 1506 1506
1468 1477 1483 1486 1487 1482 1470 1464 1465 1469 1472 1471 1473 1477 1480 1483 1486 1490 1492 1494 1496 1498 1499 1500 1501 1501 1501 1501 1501 1501 1501 1501 1501 1501 1502 1502 1502 1502 1502 1502 1502 1502 1502 1502
1468 1472 1482 1484 1490 1491 1478 1468 1467 1471 1479 1475 1477 1480 1482 1484 1488 1492 1494 1495 1497 1499 1499 1500 1501 1501 1500 1500 1499 1499 1499 1499 1499 1499 1499 1499 1499 1499 1498 1498 1498 1498 1498 1498
1474 1476 1481 1484 1486 1479 1473 1469 1471 1484 1488 1481 1481 1483 1485 1487 1490 1494 1495 1497 1498 1499 1499 1500 1500 1500 1499 1498 1498 1497 1497 1497 1496 1496 1496 1495 1495 1495 1495 1495 1494 1494 1494 1494
1473 1477 1480 1481 1487 1488 1476 1474 1480 1485 1483 1484 1484 1486 1488 1490 1492 1494 1496 1497 1498 1498 1499 1499 1499 1498 1498 1497 1496 1495 1495 1495 1494 1493 1493 1492 1492 1492 1492 1491 1491 1491 1491 1490
1469 1472 1473 1478 1484 1481 1480 1481 1484 1485 1486 1486 1487 1488 1489 1491 1492 1494 1495 1496 1497 1497 1498 1498 1497 1497 1497 1496 1495 1494 1493 1492 1491 1490 1489 1489 1488 1488 1488 1488 1488 1488 1488 1487
1469 1470 1474 1478 1479 1480 1482 1484 1486 1487 1488 1489 1489 1489 1490 1491 1493 1494 1494 1495 1496 1496 1496 1496 1496 1495 1494 1494 1493 1492 1490 1489 1488 1487 1486 1485 1485 1484 1484 1484 1484 1484 1484 1483
1473 1473 1474 1478 1480 1481 1483 1486 1488 1489 1490 1490 1490 1490 1491 1492 1492 1493 1493 1494 1494 1494 1494 1494 1494 1493 1492 1491 1490 1489 1488 1486 1485 1483 1483 1482 1481 1480 1480 1479 1479 1479 1478 1479
1475 1475 1477 1479 1481 1483 1486 1487 1489 1489 1490 1490 1490 1490 1491 1491 1491 1491 1492 1492 1492 1492 1492 1491 1491 1490 1489 1488 1487 1485 1484 1483 1481 1480 1479 1478 1477 1476 1475 1475 1474 1473 1474 1474